Metropolis, IL

3:04 PM CST on February 22, 2018 (GMT -0600)
Metropolis

Weather History for KM30 - June, 2013

Change the Weather History Date:

Wednesday, June 26, 2013

  Actual Average (KPAH) Record (KPAH)
Temperature  
Mean Temperature 82 °F -  
Max Temperature 91 °F 88 °F 101 °F (1954)
Min Temperature 72 °F 66 °F 53 °F (1974)
Cooling Degree Days 16    
Growing Degree Days 32 (Base 50)    
Moisture  
Dew Point 71 °F    
Average Humidity 70    
Maximum Humidity 100    
Minimum Humidity 50    
Precipitation  
Precipitation 0.38 in - - ()
Sea Level Pressure  
Sea Level Pressure 29.86 in    
Wind  
Wind Speed 8 mph (SSW)    
Max Wind Speed 20 mph    
Max Gust Speed 34 mph    
Visibility 10 miles    
Events Rain , Thunderstorm    
Averages and records for this station are not official NWS values.
T = Trace of Precipitation, MM = Missing Value Source: NWS Daily Summary

Daily Weather History Graph

Daily Weather History Graph

Search for Another Location

Airport or City:

Trip Planner

Search our weather history database for the weather conditions in past years. The results will help you decide how hot, cold, wet, or windy it might be!

Date:

Astronomy

Jun. 26, 2013 Rise Set
Actual Time 5:36 AM CDT 8:19 PM CDT
Civil Twilight 5:05 AM CDT 8:50 PM CDT
Nautical Twilight 4:27 AM CDT 9:28 PM CDT
Astronomical Twilight 3:43 AM CDT 10:12 PM CDT
Moon 10:48 PM CDT (6/26) 9:22 AM CDT (6/26)
Length of Visible Light 15h 44m
Length of Day
14h 42m
Waning Gibbous, 85% of the Moon is Illuminated
Jun 26
Waning Gibbous
Jun 29
Last Quarter
Jul 8
New
Jul 15
First Quarter
Jul 22
Full

Hourly Weather History & Observations

Time (CDT) Temp. Heat Index Dew Point Humidity Pressure Visibility Wind Dir Wind Speed Gust Speed Precip Events Conditions
12:15 AM 79.0 °F - 69.4 °F 72% 29.94 in 10.0 mi South 4.6 mph - N/A   Clear
12:35 AM 78.8 °F - 69.1 °F 72% 29.94 in 10.0 mi South 5.8 mph - N/A   Clear
12:55 AM 78.8 °F - 68.9 °F 72% 29.95 in 10.0 mi South 4.6 mph - N/A   Clear
1:15 AM 78.8 °F - 68.9 °F 72% 29.95 in 10.0 mi South 4.6 mph - N/A   Clear
1:35 AM 78.4 °F - 68.7 °F 72% 29.94 in 10.0 mi South 6.9 mph - N/A   Clear
1:55 AM 78.4 °F - 68.5 °F 72% 29.94 in 10.0 mi South 6.9 mph - N/A   Clear
2:15 AM 78.3 °F - 68.4 °F 71% 29.93 in 10.0 mi South 5.8 mph - N/A   Clear
2:35 AM 78.3 °F - 68.2 °F 71% 29.92 in 10.0 mi South 5.8 mph - N/A   Clear
2:55 AM 78.3 °F - 68.0 °F 71% 29.91 in 10.0 mi South 6.9 mph - N/A   Clear
3:15 AM 77.9 °F - 68.0 °F 71% 29.91 in 10.0 mi South 4.6 mph - N/A   Clear
3:35 AM 77.5 °F - 68.0 °F 72% 29.91 in 10.0 mi South 4.6 mph - N/A   Clear
3:55 AM 77.0 °F - 68.0 °F 74% 29.90 in 10.0 mi South 5.8 mph - N/A   Clear
4:15 AM 77.0 °F - 67.8 °F 73% 29.91 in 10.0 mi South 5.8 mph - N/A   Clear
4:35 AM 76.5 °F - 68.0 °F 75% 29.91 in 10.0 mi South 4.6 mph - N/A   Clear
4:55 AM 76.5 °F - 68.0 °F 75% 29.92 in 10.0 mi South 4.6 mph - N/A   Clear
5:15 AM 76.3 °F - 68.0 °F 75% 29.92 in 10.0 mi South 5.8 mph - N/A   Clear
5:35 AM 76.3 °F - 68.2 °F 76% 29.92 in 10.0 mi South 5.8 mph - N/A   Clear
5:55 AM 76.3 °F - 68.4 °F 76% 29.92 in 10.0 mi South 5.8 mph - N/A   Clear
6:15 AM 77.4 °F - 68.9 °F 75% 29.93 in 10.0 mi South 6.9 mph - N/A   Clear
6:35 AM 77.7 °F - 68.9 °F 74% 29.93 in 10.0 mi South 6.9 mph - N/A   Scattered Clouds
6:55 AM 77.9 °F - 69.1 °F 74% 29.93 in 10.0 mi South 8.1 mph - N/A   Mostly Cloudy
7:15 AM 78.1 °F - 69.4 °F 75% 29.92 in 10.0 mi South 6.9 mph - N/A   Scattered Clouds
7:35 AM 79.0 °F - 69.6 °F 73% 29.92 in 10.0 mi South 8.1 mph - N/A   Scattered Clouds
7:55 AM 79.9 °F - 69.8 °F 71% 29.92 in 10.0 mi SSW 10.4 mph 17.3 mph N/A   Clear
8:15 AM 80.6 °F 83.9 °F 70.0 °F 70% 29.92 in 10.0 mi SSW 11.5 mph 16.1 mph N/A   Scattered Clouds
8:35 AM 80.6 °F 84.1 °F 70.3 °F 71% 29.92 in 10.0 mi SSW 8.1 mph - N/A   Scattered Clouds
8:55 AM 81.3 °F 85.2 °F 70.7 °F 70% 29.93 in 10.0 mi South 8.1 mph - N/A Thunderstorm Scattered Clouds
9:15 AM 81.7 °F 85.8 °F 70.9 °F 70% 29.94 in 10.0 mi South 6.9 mph - N/A Thunderstorm Mostly Cloudy
9:55 AM 80.4 °F 84.1 °F 71.1 °F 73% 29.92 in 10.0 mi South 9.2 mph - N/A   Scattered Clouds
10:15 AM 79.9 °F - 71.2 °F 75% 29.91 in 10.0 mi South 4.6 mph - N/A Thunderstorm Clear
10:35 AM 80.1 °F 83.7 °F 71.6 °F 75% 29.92 in 10.0 mi SSW 5.8 mph - N/A Thunderstorm Scattered Clouds
10:55 AM 80.2 °F 84.0 °F 71.8 °F 75% 29.91 in 10.0 mi South 4.6 mph - N/A Rain , Thunderstorm Light Thunderstorms and Rain
11:15 AM 79.9 °F - 72.7 °F 79% 29.88 in 10.0 mi South 6.9 mph - N/A Rain Light Rain
11:35 AM 82.4 °F 88.2 °F 73.2 °F 74% 29.88 in 10.0 mi South 8.1 mph - N/A   Clear
11:55 AM 84.7 °F 91.0 °F 72.9 °F 67% 29.88 in 10.0 mi SSW 13.8 mph 19.6 mph N/A   Scattered Clouds
12:15 PM 86.2 °F 92.6 °F 72.3 °F 63% 29.88 in 10.0 mi SSW 12.7 mph 24.2 mph N/A   Scattered Clouds
12:35 PM 85.5 °F 91.8 °F 72.3 °F 65% 29.89 in 10.0 mi SSW 16.1 mph 21.9 mph N/A   Mostly Cloudy
12:55 PM 85.1 °F 91.1 °F 72.0 °F 65% 29.88 in 10.0 mi SW 13.8 mph 19.6 mph N/A   Mostly Cloudy
1:15 PM 86.9 °F 94.1 °F 72.9 °F 63% 29.87 in 10.0 mi SW 15.0 mph 18.4 mph N/A   Overcast
1:35 PM 87.4 °F 94.4 °F 72.5 °F 61% 29.86 in 10.0 mi SW 13.8 mph 24.2 mph N/A   Mostly Cloudy
1:55 PM 88.7 °F 96.2 °F 72.5 °F 59% 29.85 in 10.0 mi SSW 11.5 mph 23.0 mph N/A   Scattered Clouds
2:15 PM 88.9 °F 96.6 °F 72.9 °F 59% 29.85 in 10.0 mi SW 11.5 mph 17.3 mph N/A   Clear
2:35 PM 89.8 °F 97.5 °F 72.9 °F 57% 29.84 in 10.0 mi SSW 13.8 mph 18.4 mph N/A   Scattered Clouds
2:55 PM 89.1 °F 95.5 °F 71.6 °F 56% 29.83 in 10.0 mi SW 13.8 mph 23.0 mph N/A   Mostly Cloudy
3:15 PM 89.1 °F 95.0 °F 71.1 °F 55% 29.83 in 10.0 mi WSW 10.4 mph 18.4 mph N/A   Mostly Cloudy
3:35 PM 91.2 °F 97.0 °F 70.3 °F 50% 29.81 in 10.0 mi WSW 15.0 mph 23.0 mph N/A   Scattered Clouds
3:55 PM 90.9 °F 96.7 °F 70.3 °F 51% 29.81 in 10.0 mi SW 19.6 mph 23.0 mph N/A   Scattered Clouds
4:15 PM 91.4 °F 97.8 °F 70.7 °F 51% 29.79 in 10.0 mi SW 15.0 mph 25.3 mph N/A   Scattered Clouds
4:35 PM 91.4 °F 97.8 °F 70.9 °F 51% 29.79 in 10.0 mi SW 13.8 mph 24.2 mph N/A   Clear
4:55 PM 91.6 °F 97.7 °F 70.3 °F 50% 29.79 in 10.0 mi SW 12.7 mph 23.0 mph N/A   Clear
5:15 PM 91.4 °F 97.3 °F 70.3 °F 50% 29.78 in 10.0 mi SW 13.8 mph 18.4 mph N/A   Clear
5:35 PM 91.4 °F 97.3 °F 70.2 °F 50% 29.78 in 10.0 mi WSW 19.6 mph 23.0 mph N/A   Clear
5:55 PM 91.0 °F 96.6 °F 70.2 °F 50% 29.78 in 10.0 mi SW 11.5 mph 20.7 mph N/A   Clear
6:15 PM 90.5 °F 96.0 °F 70.2 °F 51% 29.77 in 10.0 mi SW 11.5 mph 20.7 mph N/A   Clear
6:35 PM 90.1 °F 95.8 °F 70.2 °F 52% 29.76 in 10.0 mi WSW 15.0 mph 18.4 mph N/A   Clear
6:55 PM 89.6 °F 95.7 °F 70.7 °F 54% 29.76 in 10.0 mi WSW 9.2 mph 17.3 mph N/A   Clear
7:15 PM 88.3 °F 94.1 °F 70.9 °F 56% 29.77 in 10.0 mi WSW 8.1 mph - N/A   Clear
7:35 PM 87.1 °F 93.2 °F 71.6 °F 60% 29.74 in 10.0 mi SW 8.1 mph - N/A   Clear
7:55 PM 87.1 °F 92.8 °F 71.2 °F 59% 29.78 in 10.0 mi WSW 6.9 mph - N/A Thunderstorm Clear
8:15 PM 86.4 °F 92.2 °F 71.2 °F 61% 29.77 in 10.0 mi SW 5.8 mph - N/A Thunderstorm Clear
8:35 PM 86.2 °F 91.8 °F 71.4 °F 61% 29.76 in 10.0 mi SSW 9.2 mph - N/A Thunderstorm Scattered Clouds
8:55 PM 78.1 °F - 72.5 °F 83% 29.81 in 3.0 mi North 17.3 mph 24.2 mph 0.20 in Rain , Thunderstorm Heavy Thunderstorms and Rain
9:15 PM 77.9 °F - 73.4 °F 86% 29.79 in 10.0 mi Calm Calm - 0.01 in Rain , Thunderstorm Light Thunderstorms and Rain
9:35 PM 76.5 °F - 76.5 °F 100% 29.79 in 10.0 mi Calm Calm - 0.01 in Thunderstorm Scattered Clouds
9:55 PM 76.1 °F - 76.1 °F 100% 29.78 in 10.0 mi South 4.6 mph - 0.01 in   Clear
10:15 PM 76.8 °F - 76.8 °F 100% 29.81 in 10.0 mi Calm Calm - N/A   Scattered Clouds
10:35 PM 77.0 °F - 77.0 °F 100% 29.82 in 10.0 mi North 5.8 mph - N/A Thunderstorm Scattered Clouds
10:55 PM 76.3 °F - 75.4 °F 97% 29.86 in 10.0 mi North 19.6 mph 34.5 mph N/A Rain , Thunderstorm Thunderstorms and Rain
11:15 PM 72.9 °F - 72.9 °F 100% 29.84 in 4.0 mi Calm Calm - 0.16 in Rain , Thunderstorm Thunderstorms and Rain
11:35 PM 72.9 °F - 72.9 °F 100% 29.81 in 10.0 mi Calm Calm - 0.17 in Rain , Thunderstorm Light Thunderstorms and Rain
11:55 PM 73.4 °F - 73.4 °F 100% 29.82 in 10.0 mi SSE 5.8 mph - 0.17 in Rain Light Rain